owner,sensor,date,latitude,longitude,vertical_datum,wind_speed,wind_to_direction,wind_speed_of_gust,qcFlag 
COMPS,ioos:station:USF.COMPS:TAR:1,2014-03-01T00:00:00Z,28.1560,-82.7580,7.0,1.21,341.12,1.95,'1111122,1111122,1111122' 
COMPS,ioos:station:USF.COMPS:TAR:1,2014-03-01T00:06:00Z,28.1560,-82.7580,7.0,1.36,341.96,1.86,'1111122,1111122,1111122' 
COMPS,ioos:station:USF.COMPS:TAR:1,2014-03-01T00:12:00Z,28.1560,-82.7580,7.0,1.09,351.88,1.66,'1111122,1111122,1111122' 
COMPS,ioos:station:USF.COMPS:TAR:1,2014-03-01T00:18:00Z,28.1560,-82.7580,7.0,0.77,1.29,1.17,'1111122,1111122,1111122' 
COMPS,ioos:station:USF.COMPS:TAR:1,2014-03-01T00:24:00Z,28.1560,-82.7580,7.0,0.85,348.31,1.37,'1111122,1111122,1111122' 
COMPS,ioos:station:USF.COMPS:TAR:1,2014-03-01T00:30:00Z,28.1560,-82.7580,7.0,0.96,336.11,1.56,'1111122,1111122,1111122' 
COMPS,ioos:station:USF.COMPS:TAR:1,2014-03-01T00:36:00Z,28.1560,-82.7580,7.0,0.7,332.54,1.17,'1111122,1111122,1111122' 
COMPS,ioos:station:USF.COMPS:TAR:1,2014-03-01T00:42:00Z,28.1560,-82.7580,7.0,0.67,336.58,1.17,'1111122,1111122,1111122' 
COMPS,ioos:station:USF.COMPS:TAR:1,2014-03-01T00:48:00Z,28.1560,-82.7580,7.0,0.68,338.83,1.17,'1111122,1111122,1111122' 
COMPS,ioos:station:USF.COMPS:TAR:1,2014-03-01T00:54:00Z,28.1560,-82.7580,7.0,0.58,348.21,0.97,'1111122,1111122,1111122' 
COMPS,ioos:station:USF.COMPS:TAR:1,2014-03-01T01:00:00Z,28.1560,-82.7580,7.0,0.61,350.46,1.27,'1111122,1111122,1111122' 
COMPS,ioos:station:USF.COMPS:TAR:1,2014-03-01T01:06:00Z,28.1560,-82.7580,7.0,0.73,353.45,1.27,'1111122,1111122,1111122' 
COMPS,ioos:station:USF.COMPS:TAR:1,2014-03-01T01:12:00Z,28.1560,-82.7580,7.0,0.71,5.99,1.27,'1111122,1111122,1111122' 
COMPS,ioos:station:USF.COMPS:TAR:1,2014-03-01T01:18:00Z,28.1560,-82.7580,7.0,0.74,6.91,1.07,'1111122,1111122,1111122' 
COMPS,ioos:station:USF.COMPS:TAR:1,2014-03-01T01:24:00Z,28.1560,-82.7580,7.0,0.77,6.82,1.17,'1111122,1111122,1111122' 
COMPS,ioos:station:USF.COMPS:TAR:1,2014-03-01T01:30:00Z,28.1560,-82.7580,7.0,0.91,8.65,1.27,'1111122,1111122,1111122' 
COMPS,ioos:station:USF.COMPS:TAR:1,2014-03-01T01:36:00Z,28.1560,-82.7580,7.0,0.69,22.51,1.37,'1111122,1111122,1111122' 
COMPS,ioos:station:USF.COMPS:TAR:1,2014-03-01T01:42:00Z,28.1560,-82.7580,7.0,0.5,15.82,0.88,'1111122,1111122,1111122' 
COMPS,ioos:station:USF.COMPS:TAR:1,2014-03-01T01:48:00Z,28.1560,-82.7580,7.0,0.26,356.09,0.68,'1111122,1111122,1111122' 
COMPS,ioos:station:USF.COMPS:TAR:1,2014-03-01T01:54:00Z,28.1560,-82.7580,7.0,0.66,25.13,0.97,'1111122,1111122,1111122' 
COMPS,ioos:station:USF.COMPS:TAR:1,2014-03-01T02:00:00Z,28.1560,-82.7580,7.0,0.67,51.29,0.88,'1111122,1111122,1111122' 
COMPS,ioos:station:USF.COMPS:TAR:1,2014-03-01T02:06:00Z,28.1560,-82.7580,7.0,0.7,47.12,0.97,'1111122,1111122,1111122' 
COMPS,ioos:station:USF.COMPS:TAR:1,2014-03-01T02:12:00Z,28.1560,-82.7580,7.0,0.6,41.76,0.97,'1111122,1111122,1111122' 
COMPS,ioos:station:USF.COMPS:TAR:1,2014-03-01T02:18:00Z,28.1560,-82.7580,7.0,0.54,47.21,0.78,'1111122,1111122,1111122' 
COMPS,ioos:station:USF.COMPS:TAR:1,2014-03-01T02:24:00Z,28.1560,-82.7580,7.0,0.61,50.11,0.97,'1111122,1111122,1111122' 
COMPS,ioos:station:USF.COMPS:TAR:1,2014-03-01T02:30:00Z,28.1560,-82.7580,7.0,0.85,40.39,1.27,'1111122,1111122,1111122' 
COMPS,ioos:station:USF.COMPS:TAR:1,2014-03-01T02:36:00Z,28.1560,-82.7580,7.0,0.84,42.02,1.46,'1111122,1111122,1111122' 
COMPS,ioos:station:USF.COMPS:TAR:1,2014-03-01T02:42:00Z,28.1560,-82.7580,7.0,0.67,42.3,1.17,'1111122,1111122,1111122' 
COMPS,ioos:station:USF.COMPS:TAR:1,2014-03-01T02:48:00Z,28.1560,-82.7580,7.0,0.84,22.31,1.17,'1111122,1111122,1111122' 
COMPS,ioos:station:USF.COMPS:TAR:1,2014-03-01T02:54:00Z,28.1560,-82.7580,7.0,0.54,46.9,0.78,'1111122,1111122,1111122' 
COMPS,ioos:station:USF.COMPS:TAR:1,2014-03-01T03:00:00Z,28.1560,-82.7580,7.0,0.44,78.53,0.78,'1111122,1111122,1111122' 
COMPS,ioos:station:USF.COMPS:TAR:1,2014-03-01T03:06:00Z,28.1560,-82.7580,7.0,0.73,54.36,1.37,'1111122,1111122,1111122' 
COMPS,ioos:station:USF.COMPS:TAR:1,2014-03-01T03:12:00Z,28.1560,-82.7580,7.0,0.92,48.06,1.37,'1111122,1111122,1111122' 
COMPS,ioos:station:USF.COMPS:TAR:1,2014-03-01T03:18:00Z,28.1560,-82.7580,7.0,0.87,44.58,1.56,'1111122,1111122,1111122' 
COMPS,ioos:station:USF.COMPS:TAR:1,2014-03-01T03:24:00Z,28.1560,-82.7580,7.0,0.97,29.75,1.56,'1111122,1111122,1111122' 
COMPS,ioos:station:USF.COMPS:TAR:1,2014-03-01T03:30:00Z,28.1560,-82.7580,7.0,0.82,40.67,1.17,'1111122,1111122,1111122' 
COMPS,ioos:station:USF.COMPS:TAR:1,2014-03-01T03:36:00Z,28.1560,-82.7580,7.0,0.51,85.34,0.88,'1111122,1111122,1111122' 
COMPS,ioos:station:USF.COMPS:TAR:1,2014-03-01T03:42:00Z,28.1560,-82.7580,7.0,0.56,98.15,0.88,'1111122,1111122,1111122' 
COMPS,ioos:station:USF.COMPS:TAR:1,2014-03-01T03:48:00Z,28.1560,-82.7580,7.0,0.56,70.17,0.88,'1111122,1111122,1111122' 
COMPS,ioos:station:USF.COMPS:TAR:1,2014-03-01T03:54:00Z,28.1560,-82.7580,7.0,0.76,74.66,1.56,'1111122,1111122,1111122' 
COMPS,ioos:station:USF.COMPS:TAR:1,2014-03-01T04:00:00Z,28.1560,-82.7580,7.0,0.46,110.74,0.68,'1111122,1111122,1111122' 
COMPS,ioos:station:USF.COMPS:TAR:1,2014-03-01T04:06:00Z,28.1560,-82.7580,7.0,0.39,102.78,0.68,'1111122,1111122,1111122' 
COMPS,ioos:station:USF.COMPS:TAR:1,2014-03-01T04:12:00Z,28.1560,-82.7580,7.0,0.43,72.4,0.88,'1111122,1111122,1111122' 
COMPS,ioos:station:USF.COMPS:TAR:1,2014-03-01T04:18:00Z,28.1560,-82.7580,7.0,0.47,86.81,1.46,'1111122,1111122,1111122' 
COMPS,ioos:station:USF.COMPS:TAR:1,2014-03-01T04:24:00Z,28.1560,-82.7580,7.0,1.11,43.58,1.95,'1111122,1111122,1111122' 
COMPS,ioos:station:USF.COMPS:TAR:1,2014-03-01T04:30:00Z,28.1560,-82.7580,7.0,0.87,41.56,1.66,'1111122,1111122,1111122' 
COMPS,ioos:station:USF.COMPS:TAR:1,2014-03-01T04:36:00Z,28.1560,-82.7580,7.0,1.31,44.05,2.05,'1111122,1111122,1111122' 
COMPS,ioos:station:USF.COMPS:TAR:1,2014-03-01T04:42:00Z,28.1560,-82.7580,7.0,1.38,31.49,2.25,'1111122,1111122,1111122' 
COMPS,ioos:station:USF.COMPS:TAR:1,2014-03-01T04:48:00Z,28.1560,-82.7580,7.0,1.42,33.08,2.15,'1111122,1111122,1111122' 
COMPS,ioos:station:USF.COMPS:TAR:1,2014-03-01T04:54:00Z,28.1560,-82.7580,7.0,1.36,37.15,2.25,'1111122,1111122,1111122' 
COMPS,ioos:station:USF.COMPS:TAR:1,2014-03-01T05:00:00Z,28.1560,-82.7580,7.0,1.12,51.54,2.05,'1111122,1111122,1111122' 
COMPS,ioos:station:USF.COMPS:TAR:1,2014-03-01T05:06:00Z,28.1560,-82.7580,7.0,1.04,41.31,1.86,'1111122,1111122,1111122' 
COMPS,ioos:station:USF.COMPS:TAR:1,2014-03-01T05:12:00Z,28.1560,-82.7580,7.0,1.68,29.64,2.35,'1111122,1111122,1111122' 
COMPS,ioos:station:USF.COMPS:TAR:1,2014-03-01T05:18:00Z,28.1560,-82.7580,7.0,1.41,34.99,1.95,'1111122,1111122,1111122' 
COMPS,ioos:station:USF.COMPS:TAR:1,2014-03-01T05:24:00Z,28.1560,-82.7580,7.0,1.37,32.25,2.25,'1111122,1111122,1111122' 
COMPS,ioos:station:USF.COMPS:TAR:1,2014-03-01T05:30:00Z,28.1560,-82.7580,7.0,1.65,33.17,2.35,'1111122,1111122,1111122' 
COMPS,ioos:station:USF.COMPS:TAR:1,2014-03-01T05:36:00Z,28.1560,-82.7580,7.0,1.76,22.83,2.74,'1111122,1111122,1111122' 
COMPS,ioos:station:USF.COMPS:TAR:1,2014-03-01T05:42:00Z,28.1560,-82.7580,7.0,1.25,23.78,1.76,'1111122,1111122,1111122' 
COMPS,ioos:station:USF.COMPS:TAR:1,2014-03-01T05:48:00Z,28.1560,-82.7580,7.0,1.23,21.78,1.76,'1111122,1111122,1111122' 
COMPS,ioos:station:USF.COMPS:TAR:1,2014-03-01T05:54:00Z,28.1560,-82.7580,7.0,1.41,30.57,2.25,'1111122,1111122,1111122' 
COMPS,ioos:station:USF.COMPS:TAR:1,2014-03-01T06:00:00Z,28.1560,-82.7580,7.0,1.12,32.29,1.66,'1111122,1111122,1111122' 
COMPS,ioos:station:USF.COMPS:TAR:1,2014-03-01T06:06:00Z,28.1560,-82.7580,7.0,1.49,35.63,2.25,'1111122,1111122,1111122' 
COMPS,ioos:station:USF.COMPS:TAR:1,2014-03-01T06:12:00Z,28.1560,-82.7580,7.0,1.49,36.53,2.64,'1111122,1111122,1111122' 
COMPS,ioos:station:USF.COMPS:TAR:1,2014-03-01T06:18:00Z,28.1560,-82.7580,7.0,1.68,32.94,2.45,'1111122,1111122,1111122' 
COMPS,ioos:station:USF.COMPS:TAR:1,2014-03-01T06:24:00Z,28.1560,-82.7580,7.0,1.66,40.63,2.93,'1111122,1111122,1111122' 
COMPS,ioos:station:USF.COMPS:TAR:1,2014-03-01T06:30:00Z,28.1560,-82.7580,7.0,1.3,39.39,2.35,'1111122,1111122,1111122' 
COMPS,ioos:station:USF.COMPS:TAR:1,2014-03-01T06:36:00Z,28.1560,-82.7580,7.0,1.71,43.12,3.23,'1111122,1111122,1111122' 
COMPS,ioos:station:USF.COMPS:TAR:1,2014-03-01T06:42:00Z,28.1560,-82.7580,7.0,1.55,46.02,2.64,'1111122,1111122,1111122' 
COMPS,ioos:station:USF.COMPS:TAR:1,2014-03-01T06:48:00Z,28.1560,-82.7580,7.0,0.97,36.15,1.76,'1111122,1111122,1111122' 
COMPS,ioos:station:USF.COMPS:TAR:1,2014-03-01T06:54:00Z,28.1560,-82.7580,7.0,1.19,38.25,1.95,'1111122,1111122,1111122' 
COMPS,ioos:station:USF.COMPS:TAR:1,2014-03-01T07:00:00Z,28.1560,-82.7580,7.0,0.88,38.87,1.86,'1111122,1111122,1111122' 
COMPS,ioos:station:USF.COMPS:TAR:1,2014-03-01T07:06:00Z,28.1560,-82.7580,7.0,0.65,42.78,1.37,'1111122,1111122,1111122' 
COMPS,ioos:station:USF.COMPS:TAR:1,2014-03-01T07:12:00Z,28.1560,-82.7580,7.0,0.67,47.97,1.37,'1111122,1111122,1111122' 
COMPS,ioos:station:USF.COMPS:TAR:1,2014-03-01T07:18:00Z,28.1560,-82.7580,7.0,0.58,62.18,1.27,'1111122,1111122,1111122' 
COMPS,ioos:station:USF.COMPS:TAR:1,2014-03-01T07:24:00Z,28.1560,-82.7580,7.0,0.77,54.62,1.56,'1111122,1111122,1111122' 
COMPS,ioos:station:USF.COMPS:TAR:1,2014-03-01T07:30:00Z,28.1560,-82.7580,7.0,0.61,44.42,1.37,'1111122,1111122,1111122' 
COMPS,ioos:station:USF.COMPS:TAR:1,2014-03-01T07:36:00Z,28.1560,-82.7580,7.0,0.81,77.36,1.95,'1111122,1111122,1111122' 
COMPS,ioos:station:USF.COMPS:TAR:1,2014-03-01T07:42:00Z,28.1560,-82.7580,7.0,0.86,80.42,1.76,'1111122,1111122,1111122' 
COMPS,ioos:station:USF.COMPS:TAR:1,2014-03-01T07:48:00Z,28.1560,-82.7580,7.0,0.89,94.78,2.05,'1111122,1111122,1111122' 
COMPS,ioos:station:USF.COMPS:TAR:1,2014-03-01T07:54:00Z,28.1560,-82.7580,7.0,0.81,89.79,1.76,'1111122,1111122,1111122' 
COMPS,ioos:station:USF.COMPS:TAR:1,2014-03-01T08:00:00Z,28.1560,-82.7580,7.0,1.18,81.68,2.15,'1111122,1111122,1111122' 
COMPS,ioos:station:USF.COMPS:TAR:1,2014-03-01T08:06:00Z,28.1560,-82.7580,7.0,0.91,74.38,1.76,'1111122,1111122,1111122' 
COMPS,ioos:station:USF.COMPS:TAR:1,2014-03-01T08:12:00Z,28.1560,-82.7580,7.0,0.94,86.86,2.15,'1111122,1111122,1111122' 
COMPS,ioos:station:USF.COMPS:TAR:1,2014-03-01T08:18:00Z,28.1560,-82.7580,7.0,1.11,79.19,1.95,'1111122,1111122,1111122' 
COMPS,ioos:station:USF.COMPS:TAR:1,2014-03-01T08:24:00Z,28.1560,-82.7580,7.0,0.6,89.81,1.46,'1111122,1111122,1111122' 
COMPS,ioos:station:USF.COMPS:TAR:1,2014-03-01T08:30:00Z,28.1560,-82.7580,7.0,0.41,118.37,0.88,'1111122,1111122,1111122' 
COMPS,ioos:station:USF.COMPS:TAR:1,2014-03-01T08:36:00Z,28.1560,-82.7580,7.0,0.66,107.61,1.76,'1111122,1111122,1111122' 
COMPS,ioos:station:USF.COMPS:TAR:1,2014-03-01T08:42:00Z,28.1560,-82.7580,7.0,0.9,105.98,1.66,'1111122,1111122,1111122' 
COMPS,ioos:station:USF.COMPS:TAR:1,2014-03-01T08:48:00Z,28.1560,-82.7580,7.0,0.68,94.0,1.27,'1111122,1111122,1111122' 
COMPS,ioos:station:USF.COMPS:TAR:1,2014-03-01T08:54:00Z,28.1560,-82.7580,7.0,0.7,99.52,1.17,'1111122,1111122,1111122' 
COMPS,ioos:station:USF.COMPS:TAR:1,2014-03-01T09:00:00Z,28.1560,-82.7580,7.0,0.93,86.11,2.05,'1111122,1111122,1111122' 
COMPS,ioos:station:USF.COMPS:TAR:1,2014-03-01T09:06:00Z,28.1560,-82.7580,7.0,0.95,85.23,1.66,'1111122,1111122,1111122' 
COMPS,ioos:station:USF.COMPS:TAR:1,2014-03-01T09:12:00Z,28.1560,-82.7580,7.0,0.72,94.7,1.95,'1111122,1111122,1111122' 
COMPS,ioos:station:USF.COMPS:TAR:1,2014-03-01T09:18:00Z,28.1560,-82.7580,7.0,0.86,111.54,1.46,'1111122,1111122,1111122' 
COMPS,ioos:station:USF.COMPS:TAR:1,2014-03-01T09:24:00Z,28.1560,-82.7580,7.0,0.82,106.49,1.46,'1111122,1111122,1111122' 
COMPS,ioos:station:USF.COMPS:TAR:1,2014-03-01T09:30:00Z,28.1560,-82.7580,7.0,0.76,96.35,1.56,'1111122,1111122,1111122' 
COMPS,ioos:station:USF.COMPS:TAR:1,2014-03-01T09:36:00Z,28.1560,-82.7580,7.0,1.07,81.99,2.15,'1111122,1111122,1111122' 
COMPS,ioos:station:USF.COMPS:TAR:1,2014-03-01T09:42:00Z,28.1560,-82.7580,7.0,1.12,76.08,2.15,'1111122,1111122,1111122' 
COMPS,ioos:station:USF.COMPS:TAR:1,2014-03-01T09:48:00Z,28.1560,-82.7580,7.0,1.02,82.72,1.76,'1111122,1111122,1111122' 
COMPS,ioos:station:USF.COMPS:TAR:1,2014-03-01T09:54:00Z,28.1560,-82.7580,7.0,1.0,81.37,2.25,'1111122,1111122,1111122' 
COMPS,ioos:station:USF.COMPS:TAR:1,2014-03-01T10:00:00Z,28.1560,-82.7580,7.0,1.09,84.22,2.25,'1111122,1111122,1111122' 
COMPS,ioos:station:USF.COMPS:TAR:1,2014-03-01T10:06:00Z,28.1560,-82.7580,7.0,0.94,90.67,2.25,'1111122,1111122,1111122' 
COMPS,ioos:station:USF.COMPS:TAR:1,2014-03-01T10:12:00Z,28.1560,-82.7580,7.0,0.61,117.52,1.27,'1111122,1111122,1111122' 
COMPS,ioos:station:USF.COMPS:TAR:1,2014-03-01T10:18:00Z,28.1560,-82.7580,7.0,1.0,99.19,1.76,'1111122,1111122,1111122' 
COMPS,ioos:station:USF.COMPS:TAR:1,2014-03-01T10:24:00Z,28.1560,-82.7580,7.0,0.8,81.15,1.86,'1111122,1111122,1111122' 
COMPS,ioos:station:USF.COMPS:TAR:1,2014-03-01T10:30:00Z,28.1560,-82.7580,7.0,1.02,99.79,1.86,'1111122,1111122,1111122' 
COMPS,ioos:station:USF.COMPS:TAR:1,2014-03-01T10:36:00Z,28.1560,-82.7580,7.0,0.43,122.69,0.78,'1111122,1111122,1111122' 
COMPS,ioos:station:USF.COMPS:TAR:1,2014-03-01T10:42:00Z,28.1560,-82.7580,7.0,0.57,85.89,0.97,'1111122,1111122,1111122' 
COMPS,ioos:station:USF.COMPS:TAR:1,2014-03-01T10:48:00Z,28.1560,-82.7580,7.0,0.41,102.16,0.88,'1111122,1111122,1111122' 
COMPS,ioos:station:USF.COMPS:TAR:1,2014-03-01T10:54:00Z,28.1560,-82.7580,7.0,0.42,154.44,0.68,'1111122,1111122,1111122' 
COMPS,ioos:station:USF.COMPS:TAR:1,2014-03-01T11:00:00Z,28.1560,-82.7580,7.0,0.17,142.75,0.49,'1111122,1111122,1111122' 
COMPS,ioos:station:USF.COMPS:TAR:1,2014-03-01T11:06:00Z,28.1560,-82.7580,7.0,0.46,105.37,1.17,'1111122,1111122,1111122' 
COMPS,ioos:station:USF.COMPS:TAR:1,2014-03-01T11:12:00Z,28.1560,-82.7580,7.0,0.7,89.11,1.17,'1111122,1111122,1111122' 
COMPS,ioos:station:USF.COMPS:TAR:1,2014-03-01T11:18:00Z,28.1560,-82.7580,7.0,0.38,93.12,0.97,'1111122,1111122,1111122' 
COMPS,ioos:station:USF.COMPS:TAR:1,2014-03-01T11:24:00Z,28.1560,-82.7580,7.0,0.08,104.51,0.78,'1111122,1111122,1111122' 
COMPS,ioos:station:USF.COMPS:TAR:1,2014-03-01T11:36:00Z,28.1560,-82.7580,7.0,0.27,68.62,0.68,'1111122,1111122,1111122' 
COMPS,ioos:station:USF.COMPS:TAR:1,2014-03-01T11:42:00Z,28.1560,-82.7580,7.0,0.17,57.25,0.58,'1111122,1111122,1111122' 
COMPS,ioos:station:USF.COMPS:TAR:1,2014-03-01T11:48:00Z,28.1560,-82.7580,7.0,0.63,75.42,1.17,'1111122,1111122,1111122' 
COMPS,ioos:station:USF.COMPS:TAR:1,2014-03-01T11:54:00Z,28.1560,-82.7580,7.0,0.26,137.81,0.78,'1111122,1111122,1111122' 
COMPS,ioos:station:USF.COMPS:TAR:1,2014-03-01T12:00:00Z,28.1560,-82.7580,7.0,0.09,83.89,0.49,'1111122,1111122,1111122' 
COMPS,ioos:station:USF.COMPS:TAR:1,2014-03-01T12:06:00Z,28.1560,-82.7580,7.0,0.09,137.97,0.39,'1111122,1111122,1111122' 
COMPS,ioos:station:USF.COMPS:TAR:1,2014-03-01T12:12:00Z,28.1560,-82.7580,7.0,0.04,146.27,0.29,'1111122,1111122,1111122' 
COMPS,ioos:station:USF.COMPS:TAR:1,2014-03-01T12:18:00Z,28.1560,-82.7580,7.0,0.4,158.44,0.58,'1111122,1111122,1111122' 
COMPS,ioos:station:USF.COMPS:TAR:1,2014-03-01T12:24:00Z,28.1560,-82.7580,7.0,0.2,164.53,0.68,'1111122,1111122,1111122' 
COMPS,ioos:station:USF.COMPS:TAR:1,2014-03-01T12:36:00Z,28.1560,-82.7580,7.0,0.64,51.63,1.17,'1111122,1111122,1111122' 
COMPS,ioos:station:USF.COMPS:TAR:1,2014-03-01T12:42:00Z,28.1560,-82.7580,7.0,0.44,55.07,0.78,'1111122,1111122,1111122' 
COMPS,ioos:station:USF.COMPS:TAR:1,2014-03-01T12:48:00Z,28.1560,-82.7580,7.0,0.46,40.62,0.88,'1111122,1111122,1111122' 
COMPS,ioos:station:USF.COMPS:TAR:1,2014-03-01T12:54:00Z,28.1560,-82.7580,7.0,0.59,42.49,1.07,'1111122,1111122,1111122' 
COMPS,ioos:station:USF.COMPS:TAR:1,2014-03-01T13:00:00Z,28.1560,-82.7580,7.0,0.78,56.12,1.27,'1111122,1111122,1111122' 
COMPS,ioos:station:USF.COMPS:TAR:1,2014-03-01T13:06:00Z,28.1560,-82.7580,7.0,0.88,52.84,1.27,'1111122,1111122,1111122' 
COMPS,ioos:station:USF.COMPS:TAR:1,2014-03-01T13:12:00Z,28.1560,-82.7580,7.0,1.06,52.19,1.76,'1111122,1111122,1111122' 
COMPS,ioos:station:USF.COMPS:TAR:1,2014-03-01T13:18:00Z,28.1560,-82.7580,7.0,1.08,46.77,1.86,'1111122,1111122,1111122' 
COMPS,ioos:station:USF.COMPS:TAR:1,2014-03-01T13:24:00Z,28.1560,-82.7580,7.0,0.86,67.73,1.27,'1111122,1111122,1111122' 
COMPS,ioos:station:USF.COMPS:TAR:1,2014-03-01T13:30:00Z,28.1560,-82.7580,7.0,1.12,57.66,2.05,'1111122,1111122,1111122' 
COMPS,ioos:station:USF.COMPS:TAR:1,2014-03-01T13:36:00Z,28.1560,-82.7580,7.0,1.47,44.58,2.45,'1111122,1111122,1111122' 
COMPS,ioos:station:USF.COMPS:TAR:1,2014-03-01T13:42:00Z,28.1560,-82.7580,7.0,0.87,59.01,1.95,'1111122,1111122,1111122' 
COMPS,ioos:station:USF.COMPS:TAR:1,2014-03-01T13:48:00Z,28.1560,-82.7580,7.0,1.25,35.18,1.76,'1111122,1111122,1111122' 
COMPS,ioos:station:USF.COMPS:TAR:1,2014-03-01T13:54:00Z,28.1560,-82.7580,7.0,1.53,40.48,2.64,'1111122,1111122,1111122' 
COMPS,ioos:station:USF.COMPS:TAR:1,2014-03-01T14:00:00Z,28.1560,-82.7580,7.0,1.05,52.99,1.76,'1111122,1111122,1111122' 
COMPS,ioos:station:USF.COMPS:TAR:1,2014-03-01T14:06:00Z,28.1560,-82.7580,7.0,0.75,25.98,1.86,'1111122,1111122,1111122' 
COMPS,ioos:station:USF.COMPS:TAR:1,2014-03-01T14:12:00Z,28.1560,-82.7580,7.0,1.16,39.57,1.76,'1111122,1111122,1111122' 
COMPS,ioos:station:USF.COMPS:TAR:1,2014-03-01T14:18:00Z,28.1560,-82.7580,7.0,1.0,44.39,1.95,'1111122,1111122,1111122' 
COMPS,ioos:station:USF.COMPS:TAR:1,2014-03-01T14:24:00Z,28.1560,-82.7580,7.0,1.03,64.24,2.25,'1111122,1111122,1111122' 
COMPS,ioos:station:USF.COMPS:TAR:1,2014-03-01T14:30:00Z,28.1560,-82.7580,7.0,0.92,44.87,1.86,'1111122,1111122,1111122' 
COMPS,ioos:station:USF.COMPS:TAR:1,2014-03-01T14:36:00Z,28.1560,-82.7580,7.0,0.43,25.04,1.17,'1111122,1111122,1111122' 
COMPS,ioos:station:USF.COMPS:TAR:1,2014-03-01T14:42:00Z,28.1560,-82.7580,7.0,0.86,10.92,1.76,'1111122,1111122,1111122' 
COMPS,ioos:station:USF.COMPS:TAR:1,2014-03-01T14:48:00Z,28.1560,-82.7580,7.0,0.92,56.95,1.76,'1111122,1111122,1111122' 
COMPS,ioos:station:USF.COMPS:TAR:1,2014-03-01T14:54:00Z,28.1560,-82.7580,7.0,0.81,45.2,1.56,'1111122,1111122,1111122' 
COMPS,ioos:station:USF.COMPS:TAR:1,2014-03-01T15:00:00Z,28.1560,-82.7580,7.0,0.4,18.75,0.88,'1111122,1111122,1111122' 
COMPS,ioos:station:USF.COMPS:TAR:1,2014-03-01T15:06:00Z,28.1560,-82.7580,7.0,1.18,42.71,1.86,'1111122,1111122,1111122' 
COMPS,ioos:station:USF.COMPS:TAR:1,2014-03-01T15:12:00Z,28.1560,-82.7580,7.0,0.43,64.8,1.07,'1111122,1111122,1111122' 
COMPS,ioos:station:USF.COMPS:TAR:1,2014-03-01T15:18:00Z,28.1560,-82.7580,7.0,0.86,71.79,1.56,'1111122,1111122,1111122' 
COMPS,ioos:station:USF.COMPS:TAR:1,2014-03-01T15:24:00Z,28.1560,-82.7580,7.0,0.43,76.45,1.56,'1111122,1111122,1111122' 
COMPS,ioos:station:USF.COMPS:TAR:1,2014-03-01T15:30:00Z,28.1560,-82.7580,7.0,0.81,82.91,1.76,'1111122,1111122,1111122' 
COMPS,ioos:station:USF.COMPS:TAR:1,2014-03-01T15:36:00Z,28.1560,-82.7580,7.0,0.65,110.7,1.27,'1111122,1111122,1111122' 
COMPS,ioos:station:USF.COMPS:TAR:1,2014-03-01T15:42:00Z,28.1560,-82.7580,7.0,0.94,0.17,2.25,'1111122,1111122,1111122' 
COMPS,ioos:station:USF.COMPS:TAR:1,2014-03-01T15:48:00Z,28.1560,-82.7580,7.0,0.64,37.85,1.37,'1111122,1111122,1111122' 
COMPS,ioos:station:USF.COMPS:TAR:1,2014-03-01T15:54:00Z,28.1560,-82.7580,7.0,0.4,124.61,1.17,'1111122,1111122,1111122' 
COMPS,ioos:station:USF.COMPS:TAR:1,2014-03-01T16:00:00Z,28.1560,-82.7580,7.0,0.67,179.2,1.07,'1111122,1111122,1111122' 
COMPS,ioos:station:USF.COMPS:TAR:1,2014-03-01T16:06:00Z,28.1560,-82.7580,7.0,0.57,204.37,1.17,'1111122,1111122,1111122' 
COMPS,ioos:station:USF.COMPS:TAR:1,2014-03-01T16:12:00Z,28.1560,-82.7580,7.0,0.72,157.57,1.46,'1111122,1111122,1111122' 
COMPS,ioos:station:USF.COMPS:TAR:1,2014-03-01T16:18:00Z,28.1560,-82.7580,7.0,1.06,1.34,1.95,'1111122,1111122,1111122' 
COMPS,ioos:station:USF.COMPS:TAR:1,2014-03-01T16:24:00Z,28.1560,-82.7580,7.0,0.68,52.66,1.17,'1111122,1111122,1111122' 
COMPS,ioos:station:USF.COMPS:TAR:1,2014-03-01T16:30:00Z,28.1560,-82.7580,7.0,0.3,337.62,0.88,'1111122,1111122,1111122' 
COMPS,ioos:station:USF.COMPS:TAR:1,2014-03-01T16:36:00Z,28.1560,-82.7580,7.0,0.54,285.65,1.66,'1111122,1111122,1111122' 
COMPS,ioos:station:USF.COMPS:TAR:1,2014-03-01T16:42:00Z,28.1560,-82.7580,7.0,1.27,301.96,2.35,'1111122,1111122,1111122' 
COMPS,ioos:station:USF.COMPS:TAR:1,2014-03-01T16:48:00Z,28.1560,-82.7580,7.0,1.81,320.38,2.64,'1111122,1111122,1111122' 
COMPS,ioos:station:USF.COMPS:TAR:1,2014-03-01T16:54:00Z,28.1560,-82.7580,7.0,1.57,318.46,2.54,'1111122,1111122,1111122' 
COMPS,ioos:station:USF.COMPS:TAR:1,2014-03-01T17:00:00Z,28.1560,-82.7580,7.0,2.05,290.09,3.62,'1111122,1111122,1111122' 
COMPS,ioos:station:USF.COMPS:TAR:1,2014-03-01T17:06:00Z,28.1560,-82.7580,7.0,2.61,272.48,3.62,'1111122,1111122,1111122' 
COMPS,ioos:station:USF.COMPS:TAR:1,2014-03-01T17:12:00Z,28.1560,-82.7580,7.0,2.56,258.84,3.82,'1111122,1111122,1111122' 
COMPS,ioos:station:USF.COMPS:TAR:1,2014-03-01T17:18:00Z,28.1560,-82.7580,7.0,3.06,271.37,4.9,'1111122,1111122,1111122' 
COMPS,ioos:station:USF.COMPS:TAR:1,2014-03-01T17:24:00Z,28.1560,-82.7580,7.0,3.02,271.53,4.9,'1111122,1111122,1111122' 
COMPS,ioos:station:USF.COMPS:TAR:1,2014-03-01T17:30:00Z,28.1560,-82.7580,7.0,3.17,273.87,5.29,'1111122,1111122,1111122' 
COMPS,ioos:station:USF.COMPS:TAR:1,2014-03-01T17:36:00Z,28.1560,-82.7580,7.0,2.85,281.83,4.41,'1111122,1111122,1111122' 
COMPS,ioos:station:USF.COMPS:TAR:1,2014-03-01T17:42:00Z,28.1560,-82.7580,7.0,2.81,282.6,4.6,'1111122,1111122,1111122' 
COMPS,ioos:station:USF.COMPS:TAR:1,2014-03-01T17:48:00Z,28.1560,-82.7580,7.0,2.96,285.55,5.19,'1111122,1111122,1111122' 
COMPS,ioos:station:USF.COMPS:TAR:1,2014-03-01T17:54:00Z,28.1560,-82.7580,7.0,3.17,291.06,4.5,'1111122,1111122,1111122' 
COMPS,ioos:station:USF.COMPS:TAR:1,2014-03-01T18:00:00Z,28.1560,-82.7580,7.0,2.86,298.38,5.19,'1111122,1111122,1111122' 
COMPS,ioos:station:USF.COMPS:TAR:1,2014-03-01T18:06:00Z,28.1560,-82.7580,7.0,2.78,316.21,4.41,'1111122,1111122,1111122' 
COMPS,ioos:station:USF.COMPS:TAR:1,2014-03-01T18:12:00Z,28.1560,-82.7580,7.0,3.6,319.32,4.99,'1111122,1111122,1111122' 
COMPS,ioos:station:USF.COMPS:TAR:1,2014-03-01T18:18:00Z,28.1560,-82.7580,7.0,3.57,318.24,5.58,'1111122,1111122,1111122' 
COMPS,ioos:station:USF.COMPS:TAR:1,2014-03-01T18:24:00Z,28.1560,-82.7580,7.0,3.34,313.75,4.99,'1111122,1111122,1111122' 
COMPS,ioos:station:USF.COMPS:TAR:1,2014-03-01T18:30:00Z,28.1560,-82.7580,7.0,2.89,323.96,4.9,'1111122,1111122,1111122' 
COMPS,ioos:station:USF.COMPS:TAR:1,2014-03-01T18:36:00Z,28.1560,-82.7580,7.0,3.22,309.18,4.99,'1111122,1111122,1111122' 
COMPS,ioos:station:USF.COMPS:TAR:1,2014-03-01T18:42:00Z,28.1560,-82.7580,7.0,3.28,312.12,5.19,'1111122,1111122,1111122' 
COMPS,ioos:station:USF.COMPS:TAR:1,2014-03-01T18:48:00Z,28.1560,-82.7580,7.0,3.14,314.69,4.99,'1111122,1111122,1111122' 
COMPS,ioos:station:USF.COMPS:TAR:1,2014-03-01T18:54:00Z,28.1560,-82.7580,7.0,3.92,316.97,5.48,'1111122,1111122,1111122' 
COMPS,ioos:station:USF.COMPS:TAR:1,2014-03-01T19:00:00Z,28.1560,-82.7580,7.0,3.78,316.11,5.97,'1111122,1111122,1111122' 
COMPS,ioos:station:USF.COMPS:TAR:1,2014-03-01T19:06:00Z,28.1560,-82.7580,7.0,4.01,314.42,5.58,'1111122,1111122,1111122' 
COMPS,ioos:station:USF.COMPS:TAR:1,2014-03-01T19:12:00Z,28.1560,-82.7580,7.0,3.2,321.61,4.7,'1111122,1111122,1111122' 
COMPS,ioos:station:USF.COMPS:TAR:1,2014-03-01T19:18:00Z,28.1560,-82.7580,7.0,3.36,333.2,5.58,'1111122,1111122,1111122' 
COMPS,ioos:station:USF.COMPS:TAR:1,2014-03-01T19:24:00Z,28.1560,-82.7580,7.0,3.65,325.56,5.09,'1111122,1111122,1111122' 
COMPS,ioos:station:USF.COMPS:TAR:1,2014-03-01T19:30:00Z,28.1560,-82.7580,7.0,3.47,325.14,6.17,'1111122,1111122,1111122' 
COMPS,ioos:station:USF.COMPS:TAR:1,2014-03-01T19:36:00Z,28.1560,-82.7580,7.0,2.93,316.99,4.99,'1111122,1111122,1111122' 
COMPS,ioos:station:USF.COMPS:TAR:1,2014-03-01T19:42:00Z,28.1560,-82.7580,7.0,3.34,338.83,5.58,'1111122,1111122,1111122' 
COMPS,ioos:station:USF.COMPS:TAR:1,2014-03-01T19:48:00Z,28.1560,-82.7580,7.0,3.07,333.11,4.9,'1111122,1111122,1111122' 
COMPS,ioos:station:USF.COMPS:TAR:1,2014-03-01T19:54:00Z,28.1560,-82.7580,7.0,2.87,335.37,5.19,'1111122,1111122,1111122' 